[[{"header":{"parameterUnit":"m.s-1","parameterCategory":1,"la1":30.2991,"la2":30.254,"lo1":-89.0895,"lo2":-89.0444,"dy":0.0017,"dx":0.0017,"nx":28,"ny":28,"refTime":"2023-09-02T03:00:00:Z","depth":0,"parameterNumber":2,"parameterNumberName":"U-component_of_WINDS"},"data":[0,0,0,0,0,0,0,0,0,0,0,0,0,0,0,0,0,0,0,0,0,0,0,0,0,0,0,0,0,0,0,0,0,0,0,0,0,0,0,0,0,0,0,0,0,0,0,0,0,0,0,0,0,0,0,0,0,0,-2.0669,-2.067,0,-2.0807,-2.0809,-2.0811,-2.0893,-2.0893,-2.0893,-2.0894,-2.1039,-2.1042,-2.1046,0,0,0,0,0,0,0,0,0,0,0,0,0,-2.048,-2.0483,-2.0669,-2.067,-2.0672,-2.0807,-2.0809,-2.0811,-2.0893,-2.0893,-2.0894,-2.0894,-2.1038,-2.1042,-2.1046,0,0,0,0,0,0,0,0,0,0,0,0,0,-2.0585,-2.0484,-2.0668,-2.0729,-2.0736,-2.0807,-2.0809,-2.0811,-2.0893,-2.0893,-2.0894,-2.0894,-2.1037,-2.1042,-2.1047,-2.1069,0,0,-2.1063,-2.1065,0,0,0,0,0,0,0,0,-2.0579,-2.0591,-2.0718,-2.0725,-2.0733,-2.0833,-2.0796,-2.0898,-2.0892,-2.0833,-2.0894,-2.0894,-2.097,-2.0981,-2.1006,-2.1076,-2.1082,-2.1064,-2.1067,-2.1069,-2.1071,0,0,0,0,0,0,0,-2.0571,-2.0586,-2.0724,-2.072,-2.0729,-2.0751,-2.0767,-2.0816,-2.0897,-2.0838,-2.0845,-2.086,-2.0974,-2.1001,-2.101,-2.1084,-2.1063,-2.1068,-2.1071,-2.1074,-2.1182,-2.1182,0,0,0,0,0,0,-2.0554,-2.0579,-2.0719,-2.0728,-2.0655,-2.0754,-2.0771,-2.0801,-2.0897,-2.0912,-2.0859,-2.0863,-2.0991,-2.1004,-2.1015,-2.1049,-2.1069,-2.1074,-2.1077,-2.1182,-2.1182,-2.1182,0,0,0,0,0,0,-2.0549,-2.0565,-2.0714,-2.0655,-2.0676,-2.0757,-2.0789,-2.0803,-2.0829,-2.0913,-2.0928,-2.0871,-2.0992,-2.1008,-2.1055,-2.1055,-2.1076,-2.1081,-2.1183,-2.1182,-2.1182,-2.1114,0,0,0,0,0,0,-2.0544,-2.0563,-2.0571,-2.0655,-2.0679,-2.0749,-2.0789,-2.0805,-2.0838,-2.0844,-2.0927,-2.0942,-2.0994,-2.1047,-2.1061,-2.1063,-2.1085,-2.1183,-2.1182,-2.1182,-2.1117,-2.1111,-2.1107,0,0,0,0,0,-2.0537,-2.0547,-2.0571,-2.0587,-2.069,-2.0749,-2.0763,-2.0821,-2.0837,-2.0847,-2.0901,-2.0939,-2.1053,-2.1051,-2.1067,-2.1071,-2.1183,-2.1183,-2.1182,-2.1119,-2.1112,-2.1107,0,0,0,0,0,0,-2.0461,-2.0559,-2.0587,-2.0624,-2.0677,-2.0763,-2.0776,-2.0813,-2.0863,-2.0867,-2.094,-2.0958,-2.0998,-2.104,-2.1036,-2.1099,-2.1123,-2.1125,-2.1069,-2.1064,-2.1059,-2.1048,-2.109,0,0,0,0,0,-2.0448,-2.0487,-2.0571,-2.0596,-2.0621,-2.0694,-2.0722,-2.0763,-2.0822,-2.0845,-2.0902,-2.0959,-2.1008,-2.1039,-2.1088,-2.1124,-2.1144,-2.1135,-2.113,-2.1125,-2.1126,-2.115,-2.1147,-2.1179,-2.1179,-2.1179,0,0,-2.0423,-2.0482,-2.0501,-2.0582,-2.0629,-2.0668,-2.0712,-2.0752,-2.0783,-2.0852,-2.0899,-2.0944,-2.1012,-2.1054,-2.1076,-2.109,-2.1122,-2.1125,-2.112,-2.1124,-2.1149,-2.1146,-2.1143,-2.1179,-2.1179,-2.1179,0,0,-2.0397,-2.0445,-2.0471,-2.0517,-2.0587,-2.0635,-2.0642,-2.0722,-2.0754,-2.0804,-2.0856,-2.0896,-2.0978,-2.1025,-2.1059,-2.1055,-2.1092,-2.1069,-2.1043,-2.1065,-2.1063,-2.1061,-2.106,-2.1058,-2.107,-2.107,-2.107,0,-2.0357,-2.0417,-2.048,-2.0517,-2.0552,-2.0617,-2.0645,-2.0687,-2.0769,-2.0793,-2.0808,-2.0914,-2.0965,-2.1019,-2.1018,-2.1044,-2.1055,-2.1059,-2.1058,-2.1057,-2.1056,-2.1055,-2.1055,-2.1067,-2.1067,-2.1068,-2.1068,0,-2.0365,-2.0406,-2.042,-2.0497,-2.0534,-2.0566,-2.0636,-2.0667,-2.0706,-2.0753,-2.0804,-2.0868,-2.0932,-2.0949,-2.0987,-2.101,-2.1016,-2.1044,-2.1069,-2.1048,-2.1049,-2.105,-2.1062,-2.1063,-2.1064,-2.1065,0,0,-2.0291,-2.0405,-2.0409,-2.0446,-2.0529,-2.0563,-2.06,-2.0663,-2.0687,-2.0744,-2.0777,-2.0847,-2.0873,-2.0913,-2.0958,-2.0978,-2.0971,-2.1003,-2.1006,-2.0995,-2.1002,-2.0979,-2.0978,-2.0998,-2.0998,-2.0998,-2.0996,0,-2.0276,-2.0344,-2.0403,-2.045,-2.049,-2.0554,-2.0586,-2.0642,-2.0689,-2.0731,-2.0784,-2.0832,-2.0863,-2.0888,-2.0911,-2.0967,-2.0973,-2.0968,-2.1031,-2.1032,-2.101,-2.0978,-2.0955,-2.0949,-2.0996,-2.0997,-2.0997,0,-2.0267,-2.032,-2.037,-2.0451,-2.047,-2.0498,-2.0561,-2.0601,-2.0667,-2.07,-2.0745,-2.0793,-2.0838,-2.086,-2.0924,-2.0919,-2.0949,-2.0981,-2.0982,-2.0989,-2.1012,-2.0984,-2.0948,-2.0947,-2.0998,-2.0998,-2.0998,0,-2.0207,-2.0292,-2.0333,-2.0363,-2.0459,-2.0477,-2.0518,-2.0585,-2.0619,-2.0676,-2.0699,-2.0761,-2.0794,-2.0841,-2.0905,-2.0916,-2.0962,-2.099,-2.0992,-2.099,-2.0997,-2.0995,-2.0965,-2.1018,-2.1018,-2.1018,-2.1018,0,-2.0184,-2.0211,-2.0308,-2.0333,-2.0367,-2.0437,-2.047,-2.0517,-2.0577,-2.0614,-2.0674,-2.0708,-2.0791,-2.0836,-2.0887,-2.0932,-2.0947,-2.0976,-2.0989,-2.097,-2.0966,-2.0989,-2.0991,-2.1018,-2.1018,-2.1018,-2.1018,0,-2.0121,-2.0187,-2.0236,-2.0324,-2.0347,-2.0368,-2.0445,-2.0473,-2.0524,-2.0571,-2.0586,-2.0667,-2.0723,-2.0793,-2.0871,-2.0906,-2.0946,-2.0966,-2.0923,-2.093,-2.0928,-2.0927,-2.091,-2.0912,-2.0964,-2.0963,-2.0963,0,-2.01,-2.0123,-2.0214,-2.0243,-2.0282,-2.0328,-2.0364,-2.0436,-2.0471,-2.055,-2.0569,-2.063,-2.0681,-2.0769,-2.0836,-2.0898,-2.0919,-2.091,-2.0929,-2.0909,-2.0919,-2.0916,-2.0919,-2.0903,-2.0902,-2.0902,-2.0901,0,-2.0056,-2.0089,-2.0137,-2.0198,-2.0239,-2.029,-2.0345,-2.0366,-2.0449,-2.0486,-2.0544,-2.0584,-2.0666,-2.0726,-2.0796,-2.0842,-2.0886,-2.0895,-2.0899,-2.0878,-2.0852,-2.0866,-2.0908,-2.0894,-2.0895,-2.0896,-2.0896,-2.0896,-2.0014,-2.0038,-2.0106,-2.0159,-2.0208,-2.0258,-2.0289,-2.0346,-2.0395,-2.0465,-2.0506,-2.0563,-2.0632,-2.0731,-2.0775,-2.0823,-2.0839,-2.0844,-2.0845,-2.0845,-2.0839,-2.0846,-2.0836,-2.0836,-2.0837,-2.0837,-2.0837,0,-1.9972,-2.002,-2.0068,-2.0143,-2.0185,-2.0224,-2.0287,-2.032,-2.0369,-2.043,-2.048,-2.0548,-2.0608,-2.0681,-2.0747,-2.0771,-2.0793,-2.0785,-2.0783,-2.0794,-2.0821,-2.0811,-2.0766,-2.0766,-2.0766,-2.0766,-2.0766,-2.0766,-1.9955,-1.9998,-2.0039,-2.0109,-2.0157,-2.0212,-2.0245,-2.0293,-2.0342,-2.0415,-2.0465,-2.0512,-2.0579,-2.065,-2.0708,-2.0728,-2.0749,-2.0735,-2.0762,-2.0785,-2.0791,-2.0797,-2.0788,-2.074,-2.074,-2.0731,-2.073,-2.073]},{"header":{"parameterUnit":"m.s-1","parameterCategory":1,"la1":30.2991,"la2":30.254,"lo1":-89.0895,"lo2":-89.0444,"dy":0.0017,"dx":0.0017,"nx":28,"ny":28,"refTime":"2023-09-02T03:00:00:Z","depth":0,"parameterNumber":3,"parameterNumberName":"V-component_of_WINDS"},"data":[0,0,0,0,0,0,0,0,0,0,0,0,0,0,0,0,0,0,0,0,0,0,0,0,0,0,0,0,0,0,0,0,0,0,0,0,0,0,0,0,0,0,0,0,0,0,0,0,0,0,0,0,0,0,0,0,0,0,0.5301,0.53,0,0.5241,0.5241,0.524,0.5231,0.5231,0.5232,0.5232,0.5168,0.5166,0.5164,0,0,0,0,0,0,0,0,0,0,0,0,0,0.5404,0.5402,0.5301,0.53,0.5299,0.5241,0.524,0.524,0.523,0.5231,0.5232,0.5232,0.5169,0.5166,0.5163,0,0,0,0,0,0,0,0,0,0,0,0,0,0.5353,0.5402,0.5301,0.5288,0.5286,0.5241,0.524,0.5239,0.523,0.5231,0.5232,0.5233,0.517,0.5166,0.5163,0.5126,0,0,0.5153,0.5151,0,0,0,0,0,0,0,0,0.5356,0.5349,0.529,0.5289,0.5287,0.5244,0.5253,0.5201,0.523,0.5251,0.5232,0.5233,0.5192,0.5187,0.5174,0.5123,0.5121,0.5153,0.5151,0.5149,0.5148,0,0,0,0,0,0,0,0.536,0.5352,0.5277,0.529,0.5287,0.5284,0.5278,0.5243,0.5218,0.525,0.5249,0.5242,0.5192,0.5177,0.5173,0.512,0.5153,0.515,0.5148,0.5146,0.5036,0.5035,0,0,0,0,0,0,0.5366,0.5355,0.5279,0.5275,0.5324,0.5282,0.5274,0.5257,0.5218,0.5213,0.5241,0.5242,0.5183,0.5177,0.517,0.5124,0.5149,0.5146,0.5144,0.5037,0.5036,0.5035,0,0,0,0,0,0,0.5368,0.5359,0.5281,0.5315,0.5305,0.5279,0.5259,0.5255,0.5241,0.5212,0.5207,0.5232,0.5183,0.5175,0.5138,0.5122,0.5145,0.5142,0.5038,0.5037,0.5035,0.5033,0,0,0,0,0,0,0.5371,0.536,0.5346,0.5315,0.5303,0.525,0.5258,0.5254,0.5236,0.5236,0.5202,0.5197,0.5183,0.5143,0.5134,0.5118,0.5139,0.5039,0.5037,0.5036,0.5034,0.5032,0.5029,0,0,0,0,0,0.5375,0.5347,0.5346,0.5337,0.5285,0.5249,0.5243,0.5228,0.5235,0.522,0.5202,0.5198,0.5126,0.5139,0.513,0.5112,0.504,0.5038,0.5036,0.5035,0.5032,0.5029,0,0,0,0,0,0,0.5376,0.5343,0.5341,0.5302,0.5279,0.5248,0.5229,0.5225,0.5198,0.5199,0.5182,0.5174,0.5137,0.5121,0.5136,0.5075,0.5083,0.5079,0.5086,0.5083,0.5081,0.5084,0.5136,0,0,0,0,0,0.5372,0.5347,0.5319,0.5287,0.5276,0.5255,0.5238,0.523,0.5204,0.5194,0.5173,0.5147,0.5119,0.51,0.5072,0.5033,0.5024,0.5016,0.5014,0.5012,0.5008,0.4985,0.498,0.5028,0.5028,0.5028,0,0,0.5363,0.5342,0.5327,0.5287,0.5268,0.5241,0.5246,0.5217,0.5197,0.5189,0.5152,0.5136,0.5107,0.5068,0.505,0.5053,0.4993,0.5009,0.5008,0.5004,0.4982,0.4978,0.4974,0.5026,0.5027,0.5027,0,0,0.5333,0.5315,0.5287,0.5268,0.524,0.5226,0.5219,0.5189,0.5178,0.5142,0.5135,0.5111,0.5062,0.5041,0.5025,0.4988,0.4984,0.498,0.4966,0.4944,0.4941,0.4937,0.4923,0.4918,0.4976,0.4976,0.4976,0,0.5325,0.5285,0.5272,0.5244,0.5227,0.522,0.5191,0.5173,0.5137,0.5124,0.513,0.5069,0.5049,0.5005,0.4996,0.4983,0.4974,0.4983,0.4942,0.4939,0.4935,0.4922,0.4917,0.4976,0.4976,0.4976,0.4976,0,0.5276,0.5249,0.5229,0.5195,0.5176,0.5147,0.513,0.5112,0.5105,0.5091,0.5054,0.503,0.4997,0.4986,0.4979,0.4941,0.4944,0.4946,0.4954,0.4931,0.4918,0.4912,0.4976,0.4976,0.4976,0.4976,0,0,0.5242,0.5204,0.5197,0.5181,0.515,0.5128,0.51,0.5069,0.5053,0.5029,0.5004,0.4964,0.4966,0.4946,0.4937,0.4918,0.489,0.4922,0.4921,0.4916,0.4846,0.4843,0.4838,0.4888,0.4887,0.4886,0.4848,0,0.5207,0.5157,0.5145,0.5101,0.5075,0.507,0.5045,0.5023,0.5009,0.4984,0.4969,0.494,0.4946,0.4934,0.4915,0.4897,0.4875,0.49,0.4862,0.4861,0.4868,0.4831,0.4828,0.4793,0.4843,0.4842,0.4841,0,0.5159,0.5135,0.5088,0.5062,0.505,0.5028,0.4999,0.4976,0.4951,0.4942,0.4922,0.4915,0.4884,0.4896,0.4853,0.487,0.4854,0.4843,0.4841,0.4835,0.4848,0.4822,0.4782,0.4776,0.4833,0.4834,0.4834,0,0.5137,0.5093,0.506,0.5047,0.5015,0.5,0.4986,0.4962,0.4944,0.4919,0.4907,0.4878,0.4862,0.484,0.4825,0.4835,0.4783,0.4793,0.4773,0.4773,0.476,0.4761,0.4715,0.4754,0.4754,0.4754,0.4754,0,0.5098,0.507,0.505,0.5029,0.4997,0.4985,0.4953,0.4939,0.4918,0.4894,0.4887,0.4865,0.4847,0.4822,0.481,0.4776,0.4769,0.476,0.4757,0.4759,0.476,0.4747,0.4749,0.4752,0.4753,0.4753,0.4753,0,0.5067,0.5054,0.5017,0.499,0.4983,0.496,0.4937,0.4917,0.4904,0.4873,0.4866,0.4845,0.4815,0.4799,0.4761,0.4753,0.4714,0.4713,0.4722,0.472,0.4701,0.4703,0.4643,0.4634,0.4681,0.468,0.468,0,0.5042,0.5021,0.4993,0.4977,0.4962,0.4937,0.4919,0.4907,0.4888,0.4859,0.4842,0.4812,0.4787,0.4739,0.472,0.4691,0.4688,0.467,0.4684,0.4687,0.4686,0.4687,0.4684,0.4666,0.4666,0.4666,0.4665,0,0.4999,0.4993,0.4969,0.4943,0.4922,0.49,0.4879,0.4866,0.485,0.483,0.48,0.4781,0.4743,0.4713,0.4683,0.4667,0.4663,0.4662,0.4655,0.4657,0.4662,0.4658,0.4714,0.4662,0.4663,0.4663,0.4663,0.4663,0.4969,0.4949,0.4927,0.49,0.4883,0.4863,0.4843,0.4828,0.4803,0.4772,0.4766,0.4734,0.471,0.467,0.4654,0.4628,0.4631,0.4622,0.462,0.4617,0.4616,0.4669,0.4622,0.4622,0.4623,0.4623,0.4623,0,0.4924,0.491,0.4885,0.4856,0.4835,0.4836,0.4812,0.4794,0.4766,0.4745,0.4721,0.4687,0.4658,0.4638,0.4608,0.4591,0.4589,0.4584,0.4584,0.458,0.4615,0.4623,0.4586,0.4586,0.4586,0.4586,0.4586,0.4586,0.4898,0.4864,0.4857,0.4815,0.4801,0.477,0.4757,0.4738,0.4721,0.4683,0.466,0.4648,0.4626,0.4596,0.4569,0.4564,0.4552,0.4547,0.4541,0.4574,0.4578,0.4581,0.4588,0.4545,0.4545,0.4508,0.4508,0.4508]}]]